Location: Bothwell
(42.3833°S, 147.0000°E)
Time: 09:13:30
(UTC+10:00)

UNISAT 6 - Pass Details

Date: 06 August 2024
Orbit: 589 x 662 km, 97.7° (Epoch: 14 September)

Event Time Altitude Azimuth Distance (km) Brightness Sun altitude
Rises 04:00:35 0° 156° (SSE) 3,035 ? -36.3°
Reaches altitude 10° 04:03:08 10° 144° (SE) 2,119 ? -35.9°
Enters shadow 04:05:50 24° 112° (ESE) 1,394 ? -35.4°
